Regional Weather Roundup
Issued by NWS New Orleans/Baton Rouge, LA

Home | Current Version | Previous Version | Text Only | Print | Product List | Glossary On
Versions: 1 2 3 4 5 6 7 8 9 10 11 12 13 14 15 16 17 18 19 20 21 22 23 24 25 26 27 28 29 30 31 32 33 34 35 36 37 38 39 40 41 42 43 44 45 46 47 48 49 50
703
ASUS44 KLIX 210705
RWRLIX
NEW ORLEANS REGIONAL WEATHER ROUNDUP
NATIONAL WEATHER SERVICE NEW ORLEANS LA
200 AM CDT THU AUG 21 2014

NOTE: "FAIR" INDICATES FEW OR NO CLOUDS BELOW 12,000 FEET WITH NO
      SIGNIFICANT WEATHER AND/OR OBSTRUCTIONS TO VISIBILITY.
      SKY/WX - SKY CONDITION AND SIGNIFICANT WEATHER.
      TMP - AIR TEMPERATURE.     DP    - DEWPOINT TEMPERATURE.
      RH  - RELATIVE HUMIDITY.   PRES  - PRESSURE.
      HI  - HEAT INDEX.          WCI   - WIND CHILL INDEX.

*  THESE STATIONS ARE NOT NWS OR FAA STATIONS AND ARE NOT UNDER
   NWS QUALITY CONTROL.

LAZ038-040-048-061>063-065>067-069-210800-
SOUTHEAST LOUISIANA

CITY           SKY/WX    TMP DP  RH WIND       PRES   REMARKS
N.O. AUDUBON   NOT AVBL
N.O. INTL ARPT MOCLDY    78  73  84 SE5       30.08S
N.O. LAKEFRONT PTCLDY    79  73  82 E5        30.08F
N.O. DOWNTOWN*   N/A     81  70  69 SE3       30.09S
SLIDELL        CLEAR     76  73  91 CALM      30.08S
BATON ROUGE    MOCLDY    75  72  90 NE3       30.08S
BOOTHVILLE     CLEAR     83  76  79 S5        30.09S
BELLE CHASSE   PTCLDY    76  72  87 CALM      30.08S
BOGALUSA*        N/A     75  72  88 CALM      30.10S
GALLIANO*      NOT AVBL
NEW ROADS*       N/A     76  74  92 CALM      30.08S
GONZALES*        N/A     73  73 100 CALM      30.08S
HAMMOND*       PTCLDY    73  70  88 CALM      30.10S
HOUMA*         MOCLDY    76  72  87 CALM      30.07S
PORT FOURCHON* SUNNY     86  77  74 S5        30.09S HX  97

$$

MSZ070-080>082-210800-
SOUTHERN MISSISSIPPI

CITY           SKY/WX    TMP DP  RH WIND       PRES   REMARKS
MCCOMB         CLEAR     72  69  90 CALM      30.10S
GULFPORT       CLEAR     79  76  90 CALM      30.08R
BILOXI         PTCLDY    82  77  84 SW7       30.08S
PASCAGOULA     PTCLDY    75  74  96 CALM      30.09S

$$

COASTAL OBSERVATIONS
LAKE AND NEARSHORE STATIONS

STATION/POSITION TIME  TEMP    WIND        PRES    WAVE
                       AIR SEA DIR/SP/G            HT/PER
                 (UTC) (F)     (DEG/KT/KT) (MB)    (FT/S)
PASCAGOULA       0700   85     210/  6/  8 1018.2
WAVELAND YACHT   0700   81     270/  3/  3 1018.0
GRAND ISLE       0700   85 88  190/  2/  5 1019.4
SOUTHWEST PASS   0700   85 88  190/  7/  9 1019.2
NEW CANAL        0700   79 84  130/  1/  2 1019.1
SHELL BEACH      0700   81 82  180/  3/  3 1018.4

OFFSHORE STATIONS

STATION/POSITION TIME  TEMP    WIND        PRES    WAVE
                       AIR SEA DIR/SP/G            HT/PER
                 (UTC) (F)     (DEG/KT/KT) (MB)    (FT/S)
64 S DAUPHIN ISL 0636   86 87  190/  6/  8 1019.0

$$




USA.gov is the U.S. government's official web portal to all federal, state and local government web resources and services.